Location: ????????
(55.6189°N, 38.3031°E)
Time: 22:46:58
(UTC+00:00)

Lacrosse 5 rocket - Pass Details

Date: 15 November 2019
Orbit: 460 x 637 km, 57.0° (Epoch: 05 December)

Event Time Altitude Azimuth Distance (km) Brightness Sun altitude
Exits shadow 02:10:11 53° 58° (ENE) 583 1.6 -23.7°
Drops below altitude 10° 02:13:06 10° 83° (E) 1,616 4.8 -23.3°
Sets 02:15:13 0° 86° (E) 2,487 6.2 -23.0°
